Fayetteville, Georgia, United States (30214)
Lat: 33.45N, Lon: 84.45W
Wx Zone: GAZ054
Local Info
Past Weather Observations for Today

NOTE: This archive is for the closest National Weather Service station to Fayetteville. Information may differ from the station used for current weather conditions.

Click here for Long-term Archive

Time Weather Temperature Dewpoint Humidity Pressure Winds Precip Visibility
15:53
Partly Cloudy
Fog And Mist
75°F / 24°C 72°F / 22°C 89% 30.15 in
(1021 mb)
E 3.5 mph
(E 6 kph)
0.01 in
(0.25 mm)
5SM
15:18
Partly Cloudy
Fog And Mist
75°F / 24°C 72°F / 22°C 89% 30.15 in
(1021 mb)
SE 5.8 mph
(SE 9 kph)
0.01 in
(0.25 mm)
5SM
14:53
Overcast
Light Rain
73°F / 23°C 72°F / 22°C 94% 30.15 in
(1021 mb)
SSE 4.6 mph
(SSE 7 kph)
0.10 in
(2.54 mm)
3SM
14:49
Overcast
Light Rain
73°F / 23°C 72°F / 22°C 94% 30.15 in
(1021 mb)
SSE 5.8 mph
(SSE 9 kph)
0.10 in
(2.54 mm)
2 1/2SM
13:53
Overcast
Light Rain
73°F / 23°C 72°F / 22°C 94% 30.18 in
(1022 mb)
SE 5.8 mph
(SE 9 kph)
0.07 in
(1.78 mm)
1 1/2SM
13:32
Overcast
Light Rain
73°F / 23°C 72°F / 22°C 94% 30.18 in
(1022 mb)
SSE 3.5 mph
(SSE 6 kph)
0.04 in
(1.02 mm)
1 3/4SM
12:53
Overcast
Light Rain
73°F / 23°C 72°F / 22°C 94% 30.18 in
(1022 mb)
Calm 0.03 in
(0.76 mm)
2 1/2SM
12:36
Overcast
Light Rain
73°F / 23°C 72°F / 22°C 94% 30.21 in
(1023 mb)
SE 3.5 mph
(SE 6 kph)
0.03 in
(0.76 mm)
1 1/4SM
12:28
Overcast
Light Rain
75°F / 24°C 70°F / 21°C 83% 30.21 in
(1023 mb)
ESE 8.1 mph
(ESE 13 kph)
0.01 in
(0.25 mm)
2 1/2SM
11:53
Mostly Cloudy
79°F / 26°C 70°F / 21°C 74% 30.21 in
(1023 mb)
E 3.5 mph
(E 6 kph)
0.00 in
(0.00 mm)
7SM
11:24
Overcast
77°F / 25°C 70°F / 21°C 79% 30.21 in
(1023 mb)
SE 9.2 mph
(SE 15 kph)
0.00 in
(0.00 mm)
7SM
11:10
Overcast
Hazy
79°F / 26°C 70°F / 21°C 74% 30.21 in
(1023 mb)
ESE 8.1 mph
(ESE 13 kph)
0.00 in
(0.00 mm)
6SM
10:53
Overcast
Light Rain
75°F / 24°C 70°F / 21°C 83% 30.21 in
(1023 mb)
E 8.1 mph
(E 13 kph)
0.00 in
(0.00 mm)
6SM
09:53
Overcast
Fog And Mist
75°F / 24°C 72°F / 22°C 89% 30.21 in
(1023 mb)
ESE 8.1 mph
(ESE 13 kph)
0.00 in
(0.00 mm)
5SM
09:20
Overcast
Fog And Mist
73°F / 23°C 72°F / 22°C 94% 30.21 in
(1023 mb)
E 5.8 mph
(E 9 kph)
0.00 in
(0.00 mm)
5SM
09:08
Overcast
Light Rain
73°F / 23°C 72°F / 22°C 94% 30.21 in
(1023 mb)
ESE 3.5 mph
(ESE 6 kph)
0.00 in
(0.00 mm)
4SM
08:53
Overcast
Fog And Mist
73°F / 23°C 70°F / 21°C 89% 30.21 in
(1023 mb)
E 4.6 mph
(E 7 kph)
- 4SM
07:53
Overcast
Fog And Mist
72°F / 22°C 70°F / 21°C 94% 30.18 in
(1022 mb)
E 3.5 mph
(E 6 kph)
- 3SM
07:35
Overcast
Fog And Mist
72°F / 22°C 70°F / 21°C 94% 30.18 in
(1022 mb)
Calm - 3SM
06:53
Mostly Cloudy
Fog And Mist
70°F / 21°C 68°F / 20°C 94% 30.18 in
(1022 mb)
Calm - 2SM
06:42
Mostly Cloudy
Fog And Mist
70°F / 21°C 68°F / 20°C 94% 30.18 in
(1022 mb)
Calm - 2SM
06:19
Partly Cloudy
Fog And Mist
68°F / 20°C 66°F / 19°C 94% 30.18 in
(1022 mb)
Calm - 2 1/2SM
05:53
Overcast
Fog And Mist
70°F / 21°C 66°F / 19°C 88% 30.15 in
(1021 mb)
Calm - 3SM
05:38
Mostly Cloudy
Fog And Mist
68°F / 20°C 66°F / 19°C 94% 30.15 in
(1021 mb)
Calm - 3SM
04:53
Partly Cloudy
Fog And Mist
70°F / 21°C 66°F / 19°C 88% 30.15 in
(1021 mb)
E 3.5 mph
(E 6 kph)
- 3SM
04:20
Partly Cloudy
Fog And Mist
68°F / 20°C 66°F / 19°C 94% 30.15 in
(1021 mb)
Calm - 2 1/2SM
03:53
Partly Cloudy
Fog And Mist
68°F / 20°C 66°F / 19°C 94% 30.15 in
(1021 mb)
Calm - 3SM
02:53
Clear
Fog And Mist
68°F / 20°C 66°F / 19°C 94% 30.15 in
(1021 mb)
Calm - 3SM
02:48
Clear
Fog And Mist
68°F / 20°C 66°F / 19°C 94% 30.15 in
(1021 mb)
Calm - 3SM
02:39
Clear
Fog And Mist
68°F / 20°C 66°F / 19°C 94% 30.15 in
(1021 mb)
Calm - 2 1/2SM
02:21
Partly Cloudy
Fog And Mist
68°F / 20°C 66°F / 19°C 94% 30.15 in
(1021 mb)
Calm - 3SM
02:07
Partly Cloudy
Fog And Mist
68°F / 20°C 66°F / 19°C 94% 30.15 in
(1021 mb)
Calm - 2 1/2SM
01:53
Partly Cloudy
Fog And Mist
68°F / 20°C 66°F / 19°C 94% 30.15 in
(1021 mb)
Calm - 3SM
00:53
Partly Cloudy
Fog And Mist
70°F / 21°C 68°F / 20°C 94% 30.18 in
(1022 mb)
Calm - 3SM
Time Weather Temperature Dewpoint Humidity Pressure Winds Precip Visibility


Weather for websites

WeatherForYou.com, LLC is not responsible for any damages or problems caused by this service. Current weather conditions are obtained from the closest station including government and personal stations which may have varying degrees of accuracy. Weather forecasts are derived from the NOAA NDFD. Like all things, this site belongs to Jesus Christ... He just trusts us to maintain it. If you have any questions or comments email webmaster@weatherforyou.com

Copyright © 2015, WeatherForYou.com LLC. All rights reserved.